Flag for Saint Lucia Weather past 2 weeks in Vieux Fort, Saint Lucia

Now
79 °F

Passing clouds.


Feels Like: 82 °F
Forecast: 78 / 84 °F
Wind: 14 mph from East

Location: Hewanorra International Airport

Current Time: Jan 25, 2015 at 12:06:37 AM

Latest Report: Jan 24, 2015 at 11:00 PM


Visibility: N/A

Pressure: 30.01 "Hg

Humidity: 79%

Dew point: 72 °F

Location of Vieux FortLocation

Historic Weather in Vieux Fort — Graph

°F

Vieux Fort temperature yesterday

Maximum temperature yesterday: 84 °F (at 11:00 AM)
Minimum temperature yesterday: 75 °F (at 4:00 AM)
Average temperature yesterday: 81 °F

Past Weeks' High & Low Weather Summary

 TemperatureHumidityPressure
High84 °F (Jan 10, 11:00 AM)94% (Jan 11, 1:00 PM)30.09 "Hg (Jan 11, 1:00 PM)
Low72 °F (Jan 21, 7:00 AM)58% (Jan 24, 11:00 AM)29.92 "Hg (Jan 14, 4:00 AM)
Average80 °F77%29.98 "Hg
* Reported Jan 9 10:00 PM — Jan 24 10:00 PM, Vieux Fort, Weather by CustomWeather, © 2014

Note: Actual official high and low records may vary slightly from our data, if they occured in-between our weather recording intervals... More about our weather records

Advertising

Vieux Fort weather history for previous 24 hours

 ConditionsComfort  
Time TempWeatherWind HumidityBarometerVisibility
10:00 PM
Jan 24
79 °FPassing clouds.18 mph79%30.01 "HgN/A
9:00 PM79 °FPassing clouds.14 mph79%30.01 "HgN/A
8:00 PM81 °FPassing clouds.17 mph70%29.98 "HgN/A
7:00 PM81 °FPassing clouds.17 mph74%29.98 "HgN/A
6:00 PM81 °FPassing clouds.18 mph74%29.95 "HgN/A
5:00 PM82 °FPartly sunny.18 mph70%29.95 "HgN/A
4:00 PM84 °FScattered clouds.23 mph66%29.95 "HgN/A
3:00 PM84 °FScattered showers. Scattered clouds.20 mph66%29.95 "Hg6 mi
2:00 PM84 °FScattered showers. Partly sunny.21 mph70%29.98 "HgN/A
1:00 PM82 °FPartly sunny.20 mph70%29.98 "HgN/A
12:00 PM84 °FPartly sunny.21 mph66%30.01 "HgN/A
11:00 AM84 °FScattered clouds.20 mph58%30.04 "HgN/A
10:00 AM82 °FPartly sunny.21 mph70%30.04 "HgN/A
9:00 AM81 °FScattered showers. Partly sunny.20 mph70%30.04 "Hg5 mi
8:00 AM81 °FScattered clouds.16 mph74%30.01 "HgN/A
7:00 AM79 °FScattered clouds.15 mph79%29.98 "HgN/A
6:00 AM79 °FPassing clouds.17 mph79%29.98 "HgN/A
5:00 AM79 °FPassing clouds.17 mph74%29.95 "HgN/A
4:00 AM75 °FPassing clouds.9 mph89%29.95 "HgN/A
3:00 AM79 °FPassing clouds.16 mph74%29.95 "HgN/A
2:00 AM79 °FPassing clouds.17 mph74%29.95 "HgN/A
1:00 AM79 °FPassing clouds.18 mph74%29.98 "HgN/A
12:00 AM79 °FPassing clouds.21 mph74%29.98 "HgN/A
Weather by CustomWeather, © 2014

See weather overviewHow to use our weather pages